Time,TemperatureF,DewpointF,PressureIn,WindDirection,WindDirectionDegrees,WindSpeedMPH,WindSpeedGustMPH,Humidity,HourlyPrecipIn,Conditions,Clouds,dailyrainin,SoftwareType,DateUTC
2013-01-15 00:02:00,13.9,7.9,30.27,SW,225,2.7,4.5,77,0.00,,,0.00,WUHU216HW,2013-01-15 06:02:00,
2013-01-15 00:07:00,13.9,8.3,30.27,SSW,203,3.6,4.0,78,0.00,,,0.00,WUHU216HW,2013-01-15 06:07:00,
2013-01-15 00:12:00,14.0,8.1,30.27,SW,225,2.2,4.0,77,0.00,,,0.00,WUHU216HW,2013-01-15 06:12:00,
2013-01-15 00:17:00,13.9,7.9,30.27,WSW,248,3.8,3.8,77,0.00,,,0.00,WUHU216HW,2013-01-15 06:17:00,
2013-01-15 00:22:00,13.7,7.7,30.27,WSW,248,4.0,4.0,77,0.00,,,0.00,WUHU216HW,2013-01-15 06:22:00,
2013-01-15 00:27:00,13.7,7.7,30.27,SW,225,3.4,4.0,77,0.00,,,0.00,WUHU216HW,2013-01-15 06:27:00,
2013-01-15 00:32:00,13.5,7.6,30.27,WSW,248,4.0,4.3,77,0.00,,,0.00,WUHU216HW,2013-01-15 06:32:00,
2013-01-15 00:37:00,13.7,7.7,30.26,WSW,248,3.6,4.3,77,0.00,,,0.00,WUHU216HW,2013-01-15 06:37:00,
2013-01-15 00:42:00,13.5,7.6,30.26,WSW,248,3.4,4.0,77,0.00,,,0.00,WUHU216HW,2013-01-15 06:42:00,
2013-01-15 00:47:00,13.5,7.6,30.26,SW,225,2.7,3.6,77,0.00,,,0.00,WUHU216HW,2013-01-15 06:47:00,
2013-01-15 00:52:00,13.3,7.4,30.26,SW,225,1.8,3.6,77,0.00,,,0.00,WUHU216HW,2013-01-15 06:52:00,
2013-01-15 00:57:00,13.3,7.4,30.26,SW,225,1.6,3.4,77,0.00,,,0.00,WUHU216HW,2013-01-15 06:57:00,
2013-01-15 01:02:00,13.1,7.2,30.26,WSW,248,2.0,2.5,77,0.00,,,0.00,WUHU216HW,2013-01-15 07:02:00,
2013-01-15 01:07:00,13.0,7.0,30.25,SW,225,2.0,2.9,77,0.00,,,0.00,WUHU216HW,2013-01-15 07:07:00,
2013-01-15 01:12:00,13.0,7.0,30.26,SW,225,2.5,2.9,77,0.00,,,0.00,WUHU216HW,2013-01-15 07:12:00,
2013-01-15 01:17:00,13.0,7.0,30.26,SW,225,2.7,3.4,77,0.00,,,0.00,WUHU216HW,2013-01-15 07:17:00,
2013-01-15 01:22:00,12.8,6.8,30.26,WSW,248,1.8,3.4,77,0.00,,,0.00,WUHU216HW,2013-01-15 07:22:00,
2013-01-15 01:27:00,12.8,6.8,30.26,SW,225,2.5,2.9,77,0.00,,,0.00,WUHU216HW,2013-01-15 07:27:00,
2013-01-15 01:32:00,12.6,7.0,30.26,SW,225,2.5,3.4,78,0.00,,,0.00,WUHU216HW,2013-01-15 07:32:00,
2013-01-15 01:37:00,12.6,7.0,30.26,SW,225,2.5,3.4,78,0.00,,,0.00,WUHU216HW,2013-01-15 07:37:00,
2013-01-15 01:42:00,12.6,7.0,30.26,SW,225,1.8,3.1,78,0.00,,,0.00,WUHU216HW,2013-01-15 07:42:00,
2013-01-15 01:47:00,12.6,7.0,30.27,WSW,248,1.1,2.5,78,0.00,,,0.00,WUHU216HW,2013-01-15 07:47:00,
2013-01-15 01:52:00,12.4,6.9,30.27,SW,225,1.6,2.0,78,0.00,,,0.00,WUHU216HW,2013-01-15 07:52:00,
2013-01-15 01:57:00,12.2,6.9,30.28,SSW,203,1.1,2.0,79,0.00,,,0.00,WUHU216HW,2013-01-15 07:57:00,
2013-01-15 02:02:00,12.2,6.9,30.28,SW,225,1.1,2.0,79,0.00,,,0.00,WUHU216HW,2013-01-15 08:02:00,
2013-01-15 02:07:00,11.9,6.6,30.28,SW,225,1.3,2.0,79,0.00,,,0.00,WUHU216HW,2013-01-15 08:07:00,
2013-01-15 02:12:00,11.9,6.6,30.28,SSW,203,1.6,2.0,79,0.00,,,0.00,WUHU216HW,2013-01-15 08:12:00,
2013-01-15 02:17:00,11.9,6.8,30.28,SSW,203,1.1,1.8,80,0.00,,,0.00,WUHU216HW,2013-01-15 08:17:00,
2013-01-15 02:22:00,11.9,6.8,30.28,SW,225,1.8,2.7,80,0.00,,,0.00,WUHU216HW,2013-01-15 08:22:00,
2013-01-15 02:27:00,11.9,6.8,30.28,SW,225,1.6,2.7,80,0.00,,,0.00,WUHU216HW,2013-01-15 08:27:00,
2013-01-15 02:32:00,12.2,6.9,30.28,SW,225,1.8,2.7,79,0.00,,,0.00,WUHU216HW,2013-01-15 08:32:00,
2013-01-15 02:37:00,12.2,6.9,30.27,SW,225,2.0,2.5,79,0.00,,,0.00,WUHU216HW,2013-01-15 08:37:00,
2013-01-15 02:42:00,12.4,7.1,30.27,SW,225,1.8,2.5,79,0.00,,,0.00,WUHU216HW,2013-01-15 08:42:00,
2013-01-15 02:47:00,12.6,7.3,30.27,SW,225,2.7,2.7,79,0.00,,,0.00,WUHU216HW,2013-01-15 08:47:00,
2013-01-15 02:52:00,12.8,7.5,30.27,SW,225,2.0,2.9,79,0.00,,,0.00,WUHU216HW,2013-01-15 08:52:00,
2013-01-15 02:57:00,12.8,7.5,30.27,SW,225,1.6,2.9,79,0.00,,,0.00,WUHU216HW,2013-01-15 08:57:00,
2013-01-15 03:02:00,12.6,7.3,30.27,SW,225,1.6,2.2,79,0.00,,,0.00,WUHU216HW,2013-01-15 09:02:00,
2013-01-15 03:07:00,12.6,7.3,30.27,SSW,203,1.8,2.5,79,0.00,,,0.00,WUHU216HW,2013-01-15 09:07:00,
2013-01-15 03:12:00,12.6,7.6,30.27,SW,225,1.6,2.5,80,0.00,,,0.00,WUHU216HW,2013-01-15 09:12:00,
2013-01-15 03:17:00,12.6,7.6,30.27,SW,225,1.6,2.0,80,0.00,,,0.00,WUHU216HW,2013-01-15 09:17:00,
2013-01-15 03:22:00,12.6,7.6,30.27,SW,225,1.1,1.8,80,0.00,,,0.00,WUHU216HW,2013-01-15 09:22:00,
2013-01-15 03:27:00,12.4,7.4,30.26,SSW,203,0.7,1.8,80,0.00,,,0.00,WUHU216HW,2013-01-15 09:27:00,
2013-01-15 03:32:00,12.2,7.2,30.26,SSW,203,1.1,1.8,80,0.00,,,0.00,WUHU216HW,2013-01-15 09:32:00,
2013-01-15 03:37:00,12.1,7.0,30.26,SW,225,1.1,1.3,80,0.00,,,0.00,WUHU216HW,2013-01-15 09:37:00,
2013-01-15 03:42:00,12.1,7.0,30.26,SSW,203,1.6,2.0,80,0.00,,,0.00,WUHU216HW,2013-01-15 09:42:00,
2013-01-15 03:47:00,12.1,7.3,30.26,SW,225,2.2,2.5,81,0.00,,,0.00,WUHU216HW,2013-01-15 09:47:00,
2013-01-15 03:52:00,12.2,7.5,30.26,SSW,203,1.8,2.5,81,0.00,,,0.00,WUHU216HW,2013-01-15 09:52:00,
2013-01-15 03:57:00,12.2,7.5,30.26,SW,225,2.2,2.7,81,0.00,,,0.00,WUHU216HW,2013-01-15 09:57:00,
2013-01-15 04:02:00,12.2,7.5,30.25,SW,225,1.8,2.9,81,0.00,,,0.00,WUHU216HW,2013-01-15 10:02:00,
2013-01-15 04:07:00,12.4,7.7,30.25,SW,225,1.8,2.9,81,0.00,,,0.00,WUHU216HW,2013-01-15 10:07:00,
2013-01-15 04:12:00,12.2,7.2,30.25,SW,225,1.8,2.5,80,0.00,,,0.00,WUHU216HW,2013-01-15 10:12:00,
2013-01-15 04:17:00,12.1,7.0,30.25,SW,225,1.3,2.2,80,0.00,,,0.00,WUHU216HW,2013-01-15 10:17:00,
2013-01-15 04:22:00,12.1,7.0,30.25,SW,225,2.2,2.2,80,0.00,,,0.00,WUHU216HW,2013-01-15 10:22:00,
2013-01-15 04:27:00,11.9,7.1,30.25,SW,225,1.8,2.5,81,0.00,,,0.00,WUHU216HW,2013-01-15 10:27:00,
2013-01-15 04:32:00,12.1,7.3,30.25,SW,225,2.5,2.5,81,0.00,,,0.00,WUHU216HW,2013-01-15 10:32:00,
2013-01-15 04:37:00,12.1,7.3,30.25,SW,225,2.5,3.1,81,0.00,,,0.00,WUHU216HW,2013-01-15 10:37:00,
2013-01-15 04:42:00,12.1,7.3,30.25,WSW,248,2.7,3.4,81,0.00,,,0.00,WUHU216HW,2013-01-15 10:42:00,
2013-01-15 04:47:00,12.2,7.5,30.24,WSW,248,2.2,3.4,81,0.00,,,0.00,WUHU216HW,2013-01-15 10:47:00,
2013-01-15 04:52:00,12.2,7.5,30.24,SW,225,2.9,3.4,81,0.00,,,0.00,WUHU216HW,2013-01-15 10:52:00,
2013-01-15 04:57:00,12.2,7.5,30.24,SW,225,2.0,2.9,81,0.00,,,0.00,WUHU216HW,2013-01-15 10:57:00,
2013-01-15 05:02:00,12.1,7.3,30.24,SW,225,1.6,2.9,81,0.00,,,0.00,WUHU216HW,2013-01-15 11:02:00,
2013-01-15 05:07:00,11.9,7.1,30.24,SSW,203,1.3,2.0,81,0.00,,,0.00,WUHU216HW,2013-01-15 11:07:00,
2013-01-15 05:12:00,11.9,7.1,30.23,SSW,203,1.1,2.0,81,0.00,,,0.00,WUHU216HW,2013-01-15 11:12:00,
2013-01-15 05:17:00,11.7,6.9,30.23,SW,225,1.1,1.8,81,0.00,,,0.00,WUHU216HW,2013-01-15 11:17:00,
2013-01-15 05:21:00,11.5,6.8,30.23,SW,225,0.7,1.1,81,0.00,,,0.00,WUHU216HW,2013-01-15 11:21:00,
2013-01-15 05:26:00,11.5,6.8,30.23,SW,225,0.9,1.1,81,0.00,,,0.00,WUHU216HW,2013-01-15 11:26:00,
2013-01-15 05:31:00,11.2,6.4,30.23,SW,225,0.9,1.1,81,0.00,,,0.00,WUHU216HW,2013-01-15 11:31:00,
2013-01-15 05:36:00,11.2,6.4,30.23,SW,225,0.4,1.1,81,0.00,,,0.00,WUHU216HW,2013-01-15 11:36:00,
2013-01-15 05:41:00,11.0,6.2,30.23,WSW,248,1.3,1.3,81,0.00,,,0.00,WUHU216HW,2013-01-15 11:41:00,
2013-01-15 05:46:00,11.0,6.2,30.23,WSW,248,1.1,1.8,81,0.00,,,0.00,WUHU216HW,2013-01-15 11:46:00,
2013-01-15 05:51:00,11.0,6.2,30.23,WSW,248,0.9,1.8,81,0.00,,,0.00,WUHU216HW,2013-01-15 11:51:00,
2013-01-15 05:56:00,11.0,6.2,30.23,WSW,248,0.9,1.3,81,0.00,,,0.00,WUHU216HW,2013-01-15 11:56:00,
2013-01-15 06:01:00,10.8,6.0,30.23,WSW,248,0.0,1.1,81,0.00,,,0.00,WUHU216HW,2013-01-15 12:01:00,
2013-01-15 06:06:00,10.6,5.9,30.23,WSW,248,0.0,1.1,81,0.00,,,0.00,WUHU216HW,2013-01-15 12:06:00,
2013-01-15 06:11:00,10.6,5.9,30.23,WSW,248,0.0,0.0,81,0.00,,,0.00,WUHU216HW,2013-01-15 12:11:00,
2013-01-15 06:16:00,10.6,5.9,30.23,SE,135,0.9,0.9,81,0.00,,,0.00,WUHU216HW,2013-01-15 12:16:00,
2013-01-15 06:21:00,10.4,5.9,30.23,SE,135,0.0,0.9,82,0.00,,,0.00,WUHU216HW,2013-01-15 12:21:00,
2013-01-15 06:26:00,10.4,5.9,30.23,SE,135,0.0,0.9,82,0.00,,,0.00,WUHU216HW,2013-01-15 12:26:00,
2013-01-15 06:31:00,10.3,5.5,30.23,SE,135,0.0,0.0,81,0.00,,,0.00,WUHU216HW,2013-01-15 12:31:00,
2013-01-15 06:36:00,10.3,5.8,30.23,SSW,203,0.0,0.4,82,0.00,,,0.00,WUHU216HW,2013-01-15 12:36:00,
2013-01-15 06:41:00,10.3,5.5,30.23,SW,225,0.9,0.9,81,0.00,,,0.00,WUHU216HW,2013-01-15 12:41:00,
2013-01-15 06:46:00,10.3,5.8,30.24,SSW,203,0.7,0.9,82,0.00,,,0.00,WUHU216HW,2013-01-15 12:46:00,
2013-01-15 06:51:00,10.3,5.8,30.24,SW,225,0.7,1.1,82,0.00,,,0.00,WUHU216HW,2013-01-15 12:51:00,
2013-01-15 06:56:00,10.3,5.8,30.24,SW,225,0.4,1.1,82,0.00,,,0.00,WUHU216HW,2013-01-15 12:56:00,
2013-01-15 07:01:00,10.1,5.6,30.23,SW,225,0.0,0.9,82,0.00,,,0.00,WUHU216HW,2013-01-15 13:01:00,
2013-01-15 07:06:00,10.1,5.6,30.23,SW,225,0.0,0.4,82,0.00,,,0.00,WUHU216HW,2013-01-15 13:06:00,
2013-01-15 07:11:00,9.9,5.4,30.23,SSE,158,0.2,0.9,82,0.00,,,0.00,WUHU216HW,2013-01-15 13:11:00,
2013-01-15 07:16:00,9.9,5.4,30.23,SSE,158,1.3,1.8,82,0.00,,,0.00,WUHU216HW,2013-01-15 13:16:00,
2013-01-15 07:21:00,9.7,5.3,30.23,SE,135,1.1,1.8,82,0.00,,,0.00,WUHU216HW,2013-01-15 13:21:00,
2013-01-15 07:26:00,9.9,5.4,30.23,SSE,158,1.1,1.8,82,0.00,,,0.00,WUHU216HW,2013-01-15 13:26:00,
2013-01-15 07:31:00,10.1,5.6,30.23,SSW,203,0.7,1.6,82,0.00,,,0.00,WUHU216HW,2013-01-15 13:31:00,
2013-01-15 07:36:00,10.1,5.6,30.23,SW,225,0.4,1.3,82,0.00,,,0.00,WUHU216HW,2013-01-15 13:36:00,
2013-01-15 07:41:00,10.3,5.8,30.23,SW,225,0.0,1.3,82,0.00,,,0.00,WUHU216HW,2013-01-15 13:41:00,
2013-01-15 07:46:00,10.3,5.8,30.23,SE,135,0.0,1.3,82,0.00,,,0.00,WUHU216HW,2013-01-15 13:46:00,
2013-01-15 07:51:00,10.4,5.9,30.23,SE,135,0.0,0.7,82,0.00,,,0.00,WUHU216HW,2013-01-15 13:51:00,
2013-01-15 07:56:00,10.4,5.9,30.23,SE,135,1.1,1.1,82,0.00,,,0.00,WUHU216HW,2013-01-15 13:56:00,
2013-01-15 08:01:00,11.0,6.8,30.23,SE,135,1.6,1.8,83,0.00,,,0.00,WUHU216HW,2013-01-15 14:01:00,
2013-01-15 08:06:00,11.2,6.9,30.24,SSE,158,1.1,1.8,83,0.00,,,0.00,WUHU216HW,2013-01-15 14:06:00,
2013-01-15 08:11:00,11.7,7.2,30.24,South,180,1.1,1.8,82,0.00,,,0.00,WUHU216HW,2013-01-15 14:11:00,
2013-01-15 08:16:00,12.1,7.6,30.24,SSE,158,0.7,1.6,82,0.00,,,0.00,WUHU216HW,2013-01-15 14:16:00,
2013-01-15 08:21:00,12.6,8.4,30.24,SSE,158,0.7,1.6,83,0.00,,,0.00,WUHU216HW,2013-01-15 14:21:00,
2013-01-15 08:26:00,13.0,8.7,30.24,South,180,1.8,1.8,83,0.00,,,0.00,WUHU216HW,2013-01-15 14:26:00,
2013-01-15 08:31:00,13.5,9.5,30.25,SSW,203,0.7,2.5,84,0.00,,,0.00,WUHU216HW,2013-01-15 14:31:00,
2013-01-15 08:36:00,14.0,10.1,30.25,SSW,203,2.5,2.5,84,0.00,,,0.00,WUHU216HW,2013-01-15 14:36:00,
2013-01-15 08:41:00,14.8,10.8,30.25,SSW,203,2.7,2.9,84,0.00,,,0.00,WUHU216HW,2013-01-15 14:41:00,
2013-01-15 08:46:00,15.5,11.4,30.25,South,180,5.4,5.4,84,0.00,,,0.00,WUHU216HW,2013-01-15 14:46:00,
2013-01-15 08:51:00,16.2,12.2,30.25,SW,225,2.9,5.4,84,0.00,,,0.00,WUHU216HW,2013-01-15 14:51:00,
2013-01-15 08:56:00,16.7,12.4,30.25,SSW,203,4.3,5.4,83,0.00,,,0.00,WUHU216HW,2013-01-15 14:56:00,
2013-01-15 09:01:00,17.3,12.3,30.25,SSW,203,5.8,6.9,81,0.00,,,0.00,WUHU216HW,2013-01-15 15:01:00,
2013-01-15 09:06:00,17.6,12.4,30.25,SSW,203,6.3,8.1,80,0.00,,,0.00,WUHU216HW,2013-01-15 15:06:00,
2013-01-15 09:11:00,17.8,12.3,30.25,WSW,248,6.0,8.1,79,0.00,,,0.00,WUHU216HW,2013-01-15 15:11:00,
2013-01-15 09:16:00,18.2,12.7,30.25,SW,225,7.2,7.6,79,0.00,,,0.00,WUHU216HW,2013-01-15 15:16:00,
2013-01-15 09:21:00,18.4,12.5,30.25,SSW,203,3.8,7.6,78,0.00,,,0.00,WUHU216HW,2013-01-15 15:21:00,
2013-01-15 09:26:00,18.7,12.9,30.25,SW,225,4.3,7.2,78,0.00,,,0.00,WUHU216HW,2013-01-15 15:26:00,
2013-01-15 09:31:00,19.1,13.0,30.25,SW,225,3.6,6.9,77,0.00,,,0.00,WUHU216HW,2013-01-15 15:31:00,
2013-01-15 09:36:00,19.4,13.3,30.25,WSW,248,8.5,9.4,77,0.00,,,0.00,WUHU216HW,2013-01-15 15:36:00,
2013-01-15 09:41:00,19.8,13.3,30.25,SW,225,7.2,9.4,76,0.00,,,0.00,WUHU216HW,2013-01-15 15:41:00,
2013-01-15 09:46:00,20.0,13.0,30.26,SW,225,4.7,8.9,74,0.00,,,0.00,WUHU216HW,2013-01-15 15:46:00,
2013-01-15 09:51:00,20.5,13.5,30.25,WSW,248,3.4,7.6,74,0.00,,,0.00,WUHU216HW,2013-01-15 15:51:00,
2013-01-15 09:56:00,20.7,13.7,30.25,SW,225,4.9,8.1,74,0.00,,,0.00,WUHU216HW,2013-01-15 15:56:00,
2013-01-15 10:01:00,21.1,14.3,30.25,SSW,203,4.9,8.1,75,0.00,,,0.00,WUHU216HW,2013-01-15 16:01:00,
2013-01-15 10:06:00,21.6,14.9,30.24,SW,225,5.4,7.6,75,0.00,,,0.00,WUHU216HW,2013-01-15 16:06:00,
2013-01-15 10:11:00,22.1,14.5,30.24,South,180,5.6,6.3,72,0.00,,,0.00,WUHU216HW,2013-01-15 16:11:00,
2013-01-15 10:16:00,22.5,14.5,30.24,South,180,6.7,6.7,71,0.00,,,0.00,WUHU216HW,2013-01-15 16:16:00,
2013-01-15 10:21:00,22.9,14.6,30.24,SSW,203,6.0,8.1,70,0.00,,,0.00,WUHU216HW,2013-01-15 16:21:00,
2013-01-15 10:26:00,23.2,14.6,30.24,SSW,203,6.9,9.8,69,0.00,,,0.00,WUHU216HW,2013-01-15 16:26:00,
2013-01-15 10:31:00,23.4,14.8,30.24,SSW,203,6.7,9.8,69,0.00,,,0.00,WUHU216HW,2013-01-15 16:31:00,
2013-01-15 10:36:00,23.8,15.0,30.24,South,180,6.9,9.2,69,0.00,,,0.00,WUHU216HW,2013-01-15 16:36:00,
2013-01-15 10:41:00,24.1,14.7,30.23,SW,225,5.4,9.2,67,0.00,,,0.00,WUHU216HW,2013-01-15 16:41:00,
2013-01-15 10:46:00,24.5,15.0,30.23,SSW,203,7.6,9.2,67,0.00,,,0.00,WUHU216HW,2013-01-15 16:46:00,
2013-01-15 10:51:00,24.5,15.4,30.23,South,180,6.9,9.2,68,0.00,,,0.00,WUHU216HW,2013-01-15 16:51:00,
2013-01-15 10:56:00,24.8,15.0,30.23,SW,225,6.3,8.5,66,0.00,,,0.00,WUHU216HW,2013-01-15 16:56:00,
2013-01-15 11:01:00,24.8,15.0,30.22,SW,225,8.3,8.5,66,0.00,,,0.00,WUHU216HW,2013-01-15 17:01:00,
2013-01-15 11:06:00,25.0,14.9,30.22,SW,225,7.6,11.0,65,0.00,,,0.00,WUHU216HW,2013-01-15 17:06:00,
2013-01-15 11:11:00,25.4,15.2,30.22,SSW,203,7.8,11.0,65,0.00,,,0.00,WUHU216HW,2013-01-15 17:11:00,
2013-01-15 11:16:00,25.6,15.0,30.21,SSW,203,9.4,9.4,64,0.00,,,0.00,WUHU216HW,2013-01-15 17:16:00,
2013-01-15 11:21:00,25.7,14.9,30.21,SW,225,8.9,9.8,63,0.00,,,0.00,WUHU216HW,2013-01-15 17:21:00,
2013-01-15 11:26:00,25.7,14.9,30.20,SW,225,6.5,11.4,63,0.00,,,0.00,WUHU216HW,2013-01-15 17:26:00,
2013-01-15 11:31:00,25.9,14.3,30.19,SW,225,8.1,11.4,61,0.00,,,0.00,WUHU216HW,2013-01-15 17:31:00,
2013-01-15 11:36:00,26.1,14.5,30.19,SSW,203,8.7,9.8,61,0.00,,,0.00,WUHU216HW,2013-01-15 17:36:00,
2013-01-15 11:41:00,26.3,14.2,30.19,SSW,203,7.8,11.4,60,0.00,,,0.00,WUHU216HW,2013-01-15 17:41:00,
2013-01-15 11:46:00,26.3,14.6,30.19,SSW,203,10.1,11.4,61,0.00,,,0.00,WUHU216HW,2013-01-15 17:46:00,
2013-01-15 11:51:00,26.5,14.8,30.19,WSW,248,9.4,11.4,61,0.00,,,0.00,WUHU216HW,2013-01-15 17:51:00,
2013-01-15 11:56:00,26.6,14.9,30.19,SSW,203,4.7,11.4,61,0.00,,,0.00,WUHU216HW,2013-01-15 17:56:00,
2013-01-15 12:01:00,27.0,15.7,30.19,SSW,203,5.4,11.4,62,0.00,,,0.00,WUHU216HW,2013-01-15 18:01:00,
2013-01-15 12:06:00,27.0,14.9,30.19,SW,225,11.0,13.2,60,0.00,,,0.00,WUHU216HW,2013-01-15 18:06:00,
2013-01-15 12:11:00,27.2,15.1,30.18,WSW,248,5.8,13.2,60,0.00,,,0.00,WUHU216HW,2013-01-15 18:11:00,
2013-01-15 12:16:00,27.4,14.0,30.18,SSW,203,8.3,14.8,57,0.00,,,0.00,WUHU216HW,2013-01-15 18:16:00,
2013-01-15 12:21:00,27.5,14.7,30.18,SW,225,11.2,14.8,58,0.00,,,0.00,WUHU216HW,2013-01-15 18:21:00,
2013-01-15 12:26:00,27.5,14.2,30.18,South,180,10.1,13.9,57,0.00,,,0.00,WUHU216HW,2013-01-15 18:26:00,
2013-01-15 12:31:00,27.4,13.7,30.18,SSW,203,10.5,13.9,56,0.00,,,0.00,WUHU216HW,2013-01-15 18:31:00,
2013-01-15 12:36:00,27.4,13.7,30.18,SSE,158,11.9,15.2,56,0.00,,,0.00,WUHU216HW,2013-01-15 18:36:00,
2013-01-15 12:41:00,27.4,14.0,30.18,SW,225,9.2,15.2,57,0.00,,,0.00,WUHU216HW,2013-01-15 18:41:00,
2013-01-15 12:46:00,27.7,15.2,30.17,SSW,203,10.7,14.8,59,0.00,,,0.00,WUHU216HW,2013-01-15 18:46:00,
2013-01-15 12:51:00,27.7,14.1,30.17,SSW,203,12.8,14.1,56,0.00,,,0.00,WUHU216HW,2013-01-15 18:51:00,
2013-01-15 12:56:00,27.5,13.9,30.17,SW,225,10.7,14.1,56,0.00,,,0.00,WUHU216HW,2013-01-15 18:56:00,
2013-01-15 13:01:00,27.4,14.0,30.17,SSW,203,12.1,13.4,57,0.00,,,0.00,WUHU216HW,2013-01-15 19:01:00,
2013-01-15 13:06:00,27.5,13.9,30.16,SSW,203,8.3,13.4,56,0.00,,,0.00,WUHU216HW,2013-01-15 19:06:00,
2013-01-15 13:11:00,27.7,14.4,30.16,SSW,203,4.5,12.3,57,0.00,,,0.00,WUHU216HW,2013-01-15 19:11:00,
2013-01-15 13:16:00,27.7,14.1,30.16,SSW,203,9.8,15.7,56,0.00,,,0.00,WUHU216HW,2013-01-15 19:16:00,
2013-01-15 13:21:00,27.4,14.0,30.16,SSW,203,11.9,15.7,57,0.00,,,0.00,WUHU216HW,2013-01-15 19:21:00,
2013-01-15 13:26:00,27.5,14.7,30.15,SSW,203,5.8,13.4,58,0.00,,,0.00,WUHU216HW,2013-01-15 19:26:00,
2013-01-15 13:31:00,27.5,14.2,30.15,SSW,203,11.0,13.4,57,0.00,,,0.00,WUHU216HW,2013-01-15 19:31:00,
2013-01-15 13:36:00,27.7,15.2,30.15,SE,135,9.2,13.4,59,0.00,,,0.00,WUHU216HW,2013-01-15 19:36:00,
2013-01-15 13:41:00,28.1,15.6,30.15,WSW,248,8.7,12.5,59,0.00,,,0.00,WUHU216HW,2013-01-15 19:41:00,
2013-01-15 13:46:00,28.3,15.4,30.14,SSW,203,7.4,10.5,58,0.00,,,0.00,WUHU216HW,2013-01-15 19:46:00,
2013-01-15 13:51:00,28.4,15.1,30.14,SSW,203,9.2,10.7,57,0.00,,,0.00,WUHU216HW,2013-01-15 19:51:00,
2013-01-15 13:56:00,28.4,15.6,30.14,SSW,203,6.0,10.7,58,0.00,,,0.00,WUHU216HW,2013-01-15 19:56:00,
2013-01-15 14:01:00,28.6,15.3,30.14,SSW,203,8.1,8.9,57,0.00,,,0.00,WUHU216HW,2013-01-15 20:01:00,
2013-01-15 14:06:00,28.6,14.9,30.14,SW,225,10.3,10.5,56,0.00,,,0.00,WUHU216HW,2013-01-15 20:06:00,
2013-01-15 14:11:00,28.4,13.5,30.14,SW,225,8.3,12.1,53,0.00,,,0.00,WUHU216HW,2013-01-15 20:11:00,
2013-01-15 14:16:00,28.4,14.3,30.14,SSW,203,7.2,12.1,55,0.00,,,0.00,WUHU216HW,2013-01-15 20:16:00,
2013-01-15 14:21:00,28.4,13.9,30.14,SW,225,9.2,11.4,54,0.00,,,0.00,WUHU216HW,2013-01-15 20:21:00,
2013-01-15 14:26:00,28.4,13.9,30.13,SSE,158,6.9,11.4,54,0.00,,,0.00,WUHU216HW,2013-01-15 20:26:00,
2013-01-15 14:31:00,28.4,14.3,30.13,SW,225,8.1,9.8,55,0.00,,,0.00,WUHU216HW,2013-01-15 20:31:00,
2013-01-15 14:36:00,28.4,14.3,30.13,WSW,248,11.6,13.6,55,0.00,,,0.00,WUHU216HW,2013-01-15 20:36:00,
2013-01-15 14:41:00,28.4,14.8,30.13,SSW,203,6.5,13.6,56,0.00,,,0.00,WUHU216HW,2013-01-15 20:41:00,
2013-01-15 14:46:00,28.6,14.5,30.13,SSW,203,4.9,12.1,55,0.00,,,0.00,WUHU216HW,2013-01-15 20:46:00,
2013-01-15 14:51:00,28.6,14.5,30.13,SW,225,8.1,11.4,55,0.00,,,0.00,WUHU216HW,2013-01-15 20:51:00,
2013-01-15 14:56:00,28.4,13.9,30.13,SW,225,8.3,11.4,54,0.00,,,0.00,WUHU216HW,2013-01-15 20:56:00,
2013-01-15 15:01:00,28.4,14.3,30.13,WSW,248,6.7,11.9,55,0.00,,,0.00,WUHU216HW,2013-01-15 21:01:00,
2013-01-15 15:06:00,28.4,14.8,30.12,SSW,203,6.7,11.9,56,0.00,,,0.00,WUHU216HW,2013-01-15 21:06:00,
2013-01-15 15:11:00,28.4,13.9,30.12,WSW,248,8.7,11.0,54,0.00,,,0.00,WUHU216HW,2013-01-15 21:11:00,
2013-01-15 15:16:00,28.4,13.9,30.12,SW,225,6.3,11.0,54,0.00,,,0.00,WUHU216HW,2013-01-15 21:16:00,
2013-01-15 15:21:00,28.4,13.9,30.12,SSW,203,6.0,9.8,54,0.00,,,0.00,WUHU216HW,2013-01-15 21:21:00,
2013-01-15 15:26:00,28.3,14.6,30.12,SSW,203,7.8,9.8,56,0.00,,,0.00,WUHU216HW,2013-01-15 21:26:00,
2013-01-15 15:31:00,28.3,14.1,30.12,SW,225,7.8,10.3,55,0.00,,,0.00,WUHU216HW,2013-01-15 21:31:00,
2013-01-15 15:36:00,28.3,15.4,30.12,South,180,6.9,10.3,58,0.00,,,0.00,WUHU216HW,2013-01-15 21:36:00,
2013-01-15 15:41:00,28.1,14.4,30.12,SSW,203,7.4,8.9,56,0.00,,,0.00,WUHU216HW,2013-01-15 21:41:00,
2013-01-15 15:46:00,28.1,14.4,30.12,SSW,203,5.6,8.9,56,0.00,,,0.00,WUHU216HW,2013-01-15 21:46:00,
2013-01-15 15:51:00,27.9,14.6,30.12,SSW,203,8.3,9.2,57,0.00,,,0.00,WUHU216HW,2013-01-15 21:51:00,
2013-01-15 15:56:00,27.7,14.9,30.12,WSW,248,4.9,9.2,58,0.00,,,0.00,WUHU216HW,2013-01-15 21:56:00,
2013-01-15 16:01:00,27.7,14.9,30.12,SSW,203,11.2,11.2,58,0.00,,,0.00,WUHU216HW,2013-01-15 22:01:00,
2013-01-15 16:06:00,27.4,14.5,30.12,SSW,203,9.8,11.2,58,0.00,,,0.00,WUHU216HW,2013-01-15 22:06:00,
2013-01-15 16:11:00,27.2,14.3,30.12,SSW,203,7.4,11.0,58,0.00,,,0.00,WUHU216HW,2013-01-15 22:11:00,
2013-01-15 16:16:00,27.0,14.5,30.12,SW,225,9.8,11.0,59,0.00,,,0.00,WUHU216HW,2013-01-15 22:16:00,
2013-01-15 16:21:00,26.8,14.3,30.12,SSW,203,11.2,12.8,59,0.00,,,0.00,WUHU216HW,2013-01-15 22:21:00,
2013-01-15 16:26:00,26.6,14.6,30.12,SSW,203,10.1,12.8,60,0.00,,,0.00,WUHU216HW,2013-01-15 22:26:00,
2013-01-15 16:31:00,26.5,14.8,30.12,SSW,203,10.3,11.2,61,0.00,,,0.00,WUHU216HW,2013-01-15 22:31:00,
2013-01-15 16:36:00,26.3,14.2,30.12,WSW,248,6.5,11.2,60,0.00,,,0.00,WUHU216HW,2013-01-15 22:36:00,
2013-01-15 16:41:00,25.9,14.0,30.11,SSW,203,6.3,11.2,60,0.00,,,0.00,WUHU216HW,2013-01-15 22:41:00,
2013-01-15 16:46:00,25.6,14.0,30.11,SSW,203,9.2,10.3,61,0.00,,,0.00,WUHU216HW,2013-01-15 22:46:00,
2013-01-15 16:51:00,25.6,14.0,30.11,SW,225,6.9,10.3,61,0.00,,,0.00,WUHU216HW,2013-01-15 22:51:00,
2013-01-15 16:56:00,25.4,14.1,30.11,SW,225,6.5,10.1,62,0.00,,,0.00,WUHU216HW,2013-01-15 22:56:00,
2013-01-15 17:01:00,25.2,14.3,30.11,SW,225,5.8,8.9,63,0.00,,,0.00,WUHU216HW,2013-01-15 23:01:00,
2013-01-15 17:06:00,25.0,14.1,30.11,SSW,203,6.3,9.2,63,0.00,,,0.00,WUHU216HW,2013-01-15 23:06:00,
2013-01-15 17:10:00,24.8,14.0,30.11,SW,225,7.4,9.8,63,0.00,,,0.00,WUHU216HW,2013-01-15 23:10:00,
2013-01-15 17:15:00,24.7,13.8,30.10,SSE,158,6.9,9.8,63,0.00,,,0.00,WUHU216HW,2013-01-15 23:15:00,
2013-01-15 17:20:00,24.7,14.1,30.10,SSW,203,9.2,11.4,64,0.00,,,0.00,WUHU216HW,2013-01-15 23:20:00,
2013-01-15 17:25:00,24.7,14.1,30.11,SSW,203,9.8,11.4,64,0.00,,,0.00,WUHU216HW,2013-01-15 23:25:00,
2013-01-15 17:30:00,24.5,14.3,30.11,SSW,203,8.1,11.4,65,0.00,,,0.00,WUHU216HW,2013-01-15 23:30:00,
2013-01-15 17:35:00,24.3,14.5,30.11,SSW,203,6.5,10.3,66,0.00,,,0.00,WUHU216HW,2013-01-15 23:35:00,
2013-01-15 17:40:00,23.9,14.1,30.11,SSW,203,7.4,10.5,66,0.00,,,0.00,WUHU216HW,2013-01-15 23:40:00,
2013-01-15 17:45:00,23.6,14.2,30.11,SSW,203,6.3,10.5,67,0.00,,,0.00,WUHU216HW,2013-01-15 23:45:00,
2013-01-15 17:50:00,23.4,14.4,30.11,South,180,7.8,11.4,68,0.00,,,0.00,WUHU216HW,2013-01-15 23:50:00,
2013-01-15 17:55:00,23.4,14.4,30.11,SSW,203,6.9,11.4,68,0.00,,,0.00,WUHU216HW,2013-01-15 23:55:00,
2013-01-15 18:00:00,23.2,14.2,30.10,South,180,7.8,10.5,68,0.00,,,0.00,WUHU216HW,2013-01-16 00:00:00,
2013-01-15 18:05:00,23.0,14.0,30.10,SSW,203,8.7,9.6,68,0.00,,,0.00,WUHU216HW,2013-01-16 00:05:00,
2013-01-15 18:10:00,22.7,13.7,30.10,South,180,7.4,11.0,68,0.00,,,0.00,WUHU216HW,2013-01-16 00:10:00,
2013-01-15 18:15:00,22.7,14.0,30.10,SSW,203,7.8,11.0,69,0.00,,,0.00,WUHU216HW,2013-01-16 00:15:00,
2013-01-15 18:20:00,22.5,13.9,30.09,SSW,203,6.5,9.4,69,0.00,,,0.00,WUHU216HW,2013-01-16 00:20:00,
2013-01-15 18:25:00,22.3,13.7,30.09,SSW,203,8.5,10.7,69,0.00,,,0.00,WUHU216HW,2013-01-16 00:25:00,
2013-01-15 18:30:00,22.1,13.5,30.09,SSW,203,11.2,11.2,69,0.00,,,0.00,WUHU216HW,2013-01-16 00:30:00,
2013-01-15 18:35:00,22.1,13.5,30.09,SSW,203,7.6,11.6,69,0.00,,,0.00,WUHU216HW,2013-01-16 00:35:00,
2013-01-15 18:40:00,22.0,13.7,30.09,SSW,203,7.4,11.6,70,0.00,,,0.00,WUHU216HW,2013-01-16 00:40:00,
2013-01-15 18:45:00,22.0,13.7,30.09,SW,225,7.4,12.8,70,0.00,,,0.00,WUHU216HW,2013-01-16 00:45:00,
2013-01-15 18:50:00,22.0,13.3,30.09,SW,225,8.9,12.8,69,0.00,,,0.00,WUHU216HW,2013-01-16 00:50:00,
2013-01-15 18:55:00,22.0,13.3,30.09,SSW,203,9.2,12.1,69,0.00,,,0.00,WUHU216HW,2013-01-16 00:55:00,
2013-01-15 19:00:00,22.0,13.3,30.08,SW,225,8.3,11.2,69,0.00,,,0.00,WUHU216HW,2013-01-16 01:00:00,
2013-01-15 19:05:00,21.8,13.1,30.07,SW,225,10.3,11.6,69,0.00,,,0.00,WUHU216HW,2013-01-16 01:05:00,
2013-01-15 19:10:00,21.8,13.1,30.07,SW,225,9.2,11.6,69,0.00,,,0.00,WUHU216HW,2013-01-16 01:10:00,
2013-01-15 19:15:00,21.8,13.1,30.07,SSW,203,10.3,11.4,69,0.00,,,0.00,WUHU216HW,2013-01-16 01:15:00,
2013-01-15 19:20:00,21.8,13.1,30.07,SW,225,6.9,10.3,69,0.00,,,0.00,WUHU216HW,2013-01-16 01:20:00,
2013-01-15 19:25:00,21.6,13.0,30.07,SW,225,6.5,10.5,69,0.00,,,0.00,WUHU216HW,2013-01-16 01:25:00,
2013-01-15 19:30:00,21.6,13.0,30.07,SW,225,7.2,10.5,69,0.00,,,0.00,WUHU216HW,2013-01-16 01:30:00,
2013-01-15 19:35:00,21.4,12.8,30.07,SW,225,5.4,10.5,69,0.00,,,0.00,WUHU216HW,2013-01-16 01:35:00,
2013-01-15 19:40:00,21.2,13.0,30.06,SSW,203,8.3,9.6,70,0.00,,,0.00,WUHU216HW,2013-01-16 01:40:00,
2013-01-15 19:45:00,21.2,13.0,30.06,SSW,203,7.6,9.6,70,0.00,,,0.00,WUHU216HW,2013-01-16 01:45:00,
2013-01-15 19:50:00,21.2,13.0,30.06,SSW,203,9.2,10.5,70,0.00,,,0.00,WUHU216HW,2013-01-16 01:50:00,
2013-01-15 19:55:00,21.2,13.0,30.05,SW,225,7.8,10.5,70,0.00,,,0.00,WUHU216HW,2013-01-16 01:55:00,
2013-01-15 20:00:00,21.2,13.0,30.05,SSW,203,8.5,10.7,70,0.00,,,0.00,WUHU216HW,2013-01-16 02:00:00,
2013-01-15 20:05:00,21.1,13.1,30.05,SW,225,9.4,11.4,71,0.00,,,0.00,WUHU216HW,2013-01-16 02:05:00,
2013-01-15 20:10:00,21.1,13.1,30.04,SW,225,10.3,11.4,71,0.00,,,0.00,WUHU216HW,2013-01-16 02:10:00,
2013-01-15 20:15:00,20.9,13.2,30.04,SW,225,7.6,12.1,72,0.00,,,0.00,WUHU216HW,2013-01-16 02:15:00,
2013-01-15 20:20:00,20.9,13.2,30.03,SSW,203,9.8,13.0,72,0.00,,,0.00,WUHU216HW,2013-01-16 02:20:00,
2013-01-15 20:25:00,20.9,13.2,30.03,SSW,203,11.4,13.0,72,0.00,,,0.00,WUHU216HW,2013-01-16 02:25:00,
2013-01-15 20:30:00,20.7,13.1,30.03,SSW,203,10.7,12.5,72,0.00,,,0.00,WUHU216HW,2013-01-16 02:30:00,
2013-01-15 20:35:00,20.7,13.1,30.03,SW,225,12.1,12.1,72,0.00,,,0.00,WUHU216HW,2013-01-16 02:35:00,
2013-01-15 20:40:00,20.7,13.1,30.03,SW,225,9.6,13.0,72,0.00,,,0.00,WUHU216HW,2013-01-16 02:40:00,
2013-01-15 20:45:00,20.5,12.9,30.03,SSW,203,6.5,13.0,72,0.00,,,0.00,WUHU216HW,2013-01-16 02:45:00,
2013-01-15 20:50:00,20.5,12.9,30.03,SW,225,7.6,11.0,72,0.00,,,0.00,WUHU216HW,2013-01-16 02:50:00,
2013-01-15 20:55:00,20.5,13.1,30.02,SSW,203,8.1,11.2,73,0.00,,,0.00,WUHU216HW,2013-01-16 02:55:00,
2013-01-15 21:00:00,20.3,13.0,30.01,SSW,203,9.8,11.4,73,0.00,,,0.00,WUHU216HW,2013-01-16 03:00:00,
2013-01-15 21:05:00,20.3,13.0,30.01,SSW,203,9.2,11.4,73,0.00,,,0.00,WUHU216HW,2013-01-16 03:05:00,
2013-01-15 21:10:00,20.2,12.8,30.01,SW,225,7.6,11.4,73,0.00,,,0.00,WUHU216HW,2013-01-16 03:10:00,
2013-01-15 21:15:00,20.0,13.0,30.01,SW,225,9.6,9.8,74,0.00,,,0.00,WUHU216HW,2013-01-16 03:15:00,
2013-01-15 21:20:00,20.0,13.0,30.01,SSW,203,9.8,11.0,74,0.00,,,0.00,WUHU216HW,2013-01-16 03:20:00,
2013-01-15 21:25:00,20.0,13.0,30.00,SSW,203,7.6,11.0,74,0.00,,,0.00,WUHU216HW,2013-01-16 03:25:00,
2013-01-15 21:30:00,19.8,12.8,30.00,SSW,203,9.2,10.7,74,0.00,,,0.00,WUHU216HW,2013-01-16 03:30:00,
2013-01-15 21:35:00,19.8,12.8,30.00,SSW,203,8.5,10.7,74,0.00,,,0.00,WUHU216HW,2013-01-16 03:35:00,
2013-01-15 21:40:00,19.8,12.8,29.99,SW,225,8.7,11.0,74,0.00,,,0.00,WUHU216HW,2013-01-16 03:40:00,
2013-01-15 21:45:00,19.6,12.9,29.99,WSW,248,5.8,11.0,75,0.00,,,0.00,WUHU216HW,2013-01-16 03:45:00,
2013-01-15 21:50:00,19.4,12.4,29.99,SSW,203,7.6,10.3,74,0.00,,,0.00,WUHU216HW,2013-01-16 03:50:00,
2013-01-15 21:55:00,19.4,12.4,29.99,SSW,203,6.5,10.5,74,0.00,,,0.00,WUHU216HW,2013-01-16 03:55:00,
2013-01-15 22:00:00,19.4,12.4,29.99,SSW,203,6.9,10.5,74,0.00,,,0.00,WUHU216HW,2013-01-16 04:00:00,
2013-01-15 22:05:00,19.3,12.5,29.99,SW,225,5.6,9.8,75,0.00,,,0.00,WUHU216HW,2013-01-16 04:05:00,
2013-01-15 22:10:00,19.3,12.3,29.99,SW,225,6.9,8.5,74,0.00,,,0.00,WUHU216HW,2013-01-16 04:10:00,
2013-01-15 22:15:00,19.1,12.3,29.99,SW,225,7.6,9.6,75,0.00,,,0.00,WUHU216HW,2013-01-16 04:15:00,
2013-01-15 22:20:00,19.1,12.1,29.99,SW,225,7.4,9.6,74,0.00,,,0.00,WUHU216HW,2013-01-16 04:20:00,
2013-01-15 22:25:00,19.1,12.1,29.99,SW,225,4.9,8.9,74,0.00,,,0.00,WUHU216HW,2013-01-16 04:25:00,
2013-01-15 22:30:00,18.7,11.7,29.99,SW,225,5.4,7.8,74,0.00,,,0.00,WUHU216HW,2013-01-16 04:30:00,
2013-01-15 22:35:00,18.5,11.5,29.99,WSW,248,5.6,8.1,74,0.00,,,0.00,WUHU216HW,2013-01-16 04:35:00,
2013-01-15 22:40:00,18.5,11.9,29.99,SW,225,5.4,8.1,75,0.00,,,0.00,WUHU216HW,2013-01-16 04:40:00,
2013-01-15 22:45:00,18.4,11.3,29.98,SW,225,4.0,6.9,74,0.00,,,0.00,WUHU216HW,2013-01-16 04:45:00,
2013-01-15 22:50:00,18.4,11.3,29.98,WSW,248,4.9,6.9,74,0.00,,,0.00,WUHU216HW,2013-01-16 04:50:00,
2013-01-15 22:55:00,18.4,11.7,29.98,SW,225,6.0,6.9,75,0.00,,,0.00,WUHU216HW,2013-01-16 04:55:00,
2013-01-15 23:00:00,18.4,11.7,29.97,SW,225,6.7,7.2,75,0.00,,,0.00,WUHU216HW,2013-01-16 05:00:00,
2013-01-15 23:02:00,18.4,11.7,29.97,SW,225,7.8,9.6,75,0.00,,,0.00,WUHU216HW,2013-01-16 05:02:00,
2013-01-15 23:07:00,18.5,11.9,29.97,SW,225,6.7,9.6,75,0.00,,,0.00,WUHU216HW,2013-01-16 05:07:00,
2013-01-15 23:12:00,18.5,11.9,29.97,SW,225,5.8,8.3,75,0.00,,,0.00,WUHU216HW,2013-01-16 05:12:00,
2013-01-15 23:17:00,18.5,11.9,29.97,SW,225,6.5,8.3,75,0.00,,,0.00,WUHU216HW,2013-01-16 05:17:00,
2013-01-15 23:22:00,18.5,11.9,29.97,SW,225,6.0,8.3,75,0.00,,,0.00,WUHU216HW,2013-01-16 05:22:00,
2013-01-15 23:27:00,18.5,11.9,29.96,SW,225,6.3,7.6,75,0.00,,,0.00,WUHU216HW,2013-01-16 05:27:00,
2013-01-15 23:32:00,18.5,11.9,29.96,SW,225,6.7,8.3,75,0.00,,,0.00,WUHU216HW,2013-01-16 05:32:00,
2013-01-15 23:37:00,18.5,12.2,29.96,SSW,203,7.2,8.7,76,0.00,,,0.00,WUHU216HW,2013-01-16 05:37:00,
2013-01-15 23:42:00,18.7,12.0,29.96,SSW,203,5.6,8.7,75,0.00,,,0.00,WUHU216HW,2013-01-16 05:42:00,
2013-01-15 23:47:00,18.7,12.3,29.95,SW,225,6.3,8.1,76,0.00,,,0.00,WUHU216HW,2013-01-16 05:47:00,
2013-01-15 23:52:00,18.5,12.2,29.94,SSW,203,6.5,8.1,76,0.00,,,0.00,WUHU216HW,2013-01-16 05:52:00,
2013-01-15 23:57:00,18.4,12.0,29.94,SSW,203,4.7,7.4,76,0.00,,,0.00,WUHU216HW,2013-01-16 05:57:00,